Flag for Turkey Weather past 2 weeks in Istanbul, Turkey

Now
77 °F

Broken clouds.


Feels Like: 78 °F
Forecast: 62 / 69 °F
Wind: 9 mph from Southeast

Location: Istanbul Ataturk Airport

Current Time: Oct 23, 2014 at 5:29:49 PM

Latest Report: Oct 23, 2014 at 4:50 PM


Visibility: N/A

Pressure: 29.62 "Hg

Humidity: 44%

Dew point: 54 °F

Location of IstanbulLocation

Historic Weather in Istanbul — Graph

°F

Istanbul temperature yesterday

Maximum temperature yesterday: 72 °F (at 2:20 PM)
Minimum temperature yesterday: 59 °F (at 12:20 AM)
Average temperature yesterday: 66 °F

Past Weeks' High & Low Weather Summary

 TemperatureHumidityPressure
High75 °F (Oct 23, 2:20 PM)94% (Oct 13, 6:50 AM)30.36 "Hg (Oct 13, 6:50 AM)
Low48 °F (Oct 20, 6:20 AM)44% (Oct 23, 4:20 PM)29.65 "Hg (Oct 23, 1:50 PM)
Average64 °F71%30.04 "Hg
* Reported Oct 8 4:20 PM — Oct 23 4:20 PM, Istanbul, Weather by CustomWeather, © 2014

Note: Actual official high and low records may vary slightly from our data, if they occured in-between our weather recording intervals... More about our weather records

Advertising

Istanbul weather history for previous 24 hours

 ConditionsComfort  
Time TempWeatherWind HumidityBarometerVisibility
4:20 PM
Oct 23
75 °FBroken clouds.8 mph44%29.65 "HgN/A
3:50 PM75 °FPartly sunny.8 mph47%29.65 "HgN/A
3:20 PM75 °FScattered clouds.8 mph47%29.65 "HgN/A
2:50 PM75 °FPartly sunny.9 mph47%29.65 "HgN/A
2:20 PM75 °FScattered clouds.9 mph47%29.65 "HgN/A
1:50 PM73 °FPartly sunny.9 mph53%29.65 "HgN/A
1:20 PM73 °FPartly sunny.13 mph47%29.68 "HgN/A
12:50 PM73 °FPartly sunny.14 mph47%29.68 "HgN/A
12:20 PM73 °FScattered clouds.12 mph47%29.68 "HgN/A
11:50 AM73 °FScattered clouds.16 mph47%29.71 "HgN/A
11:20 AM72 °FScattered clouds.12 mph50%29.71 "HgN/A
10:50 AM73 °FScattered clouds.9 mph50%29.71 "HgN/A
10:20 AM70 °FBroken clouds.8 mph57%29.71 "HgN/A
9:50 AM72 °FBroken clouds.7 mph57%29.71 "HgN/A
9:20 AM68 °FBroken clouds.9 mph64%29.71 "HgN/A
8:50 AM70 °FScattered clouds.7 mph60%29.71 "HgN/A
8:20 AM70 °FPassing clouds.5 mph60%29.68 "HgN/A
7:50 AM66 °FPassing clouds.7 mph68%29.68 "HgN/A
7:20 AM70 °FPassing clouds.9 mph57%29.68 "HgN/A
6:50 AM68 °FPassing clouds.9 mph60%29.68 "HgN/A
6:20 AM68 °FPassing clouds.9 mph69%29.68 "HgN/A
5:50 AM66 °FPassing clouds.8 mph73%29.68 "HgN/A
5:20 AM68 °FPassing clouds.7 mph69%29.68 "HgN/A
4:50 AM68 °FPassing clouds.12 mph69%29.68 "HgN/A
4:20 AM68 °FPassing clouds.9 mph64%29.71 "HgN/A
3:50 AM66 °FPartly cloudy.7 mph73%29.71 "HgN/A
3:20 AM66 °FPartly cloudy.10 mph68%29.71 "HgN/A
2:50 AM68 °FPartly cloudy.9 mph69%29.71 "HgN/A
2:20 AM70 °FPassing clouds.16 mph60%29.74 "HgN/A
1:50 AM70 °FPassing clouds.15 mph60%29.74 "HgN/A
1:20 AM68 °FPassing clouds.14 mph64%29.74 "HgN/A
12:50 AM70 °FPassing clouds.14 mph60%29.74 "HgN/A
12:20 AM70 °FPassing clouds.16 mph60%29.74 "HgN/A
11:50 PM
Oct 22
68 °FClear.9 mph69%29.74 "Hg10 mi
11:20 PM70 °FClear.12 mph60%29.74 "Hg10 mi
10:50 PM70 °FClear.10 mph60%29.74 "Hg10 mi
10:20 PM68 °FClear.7 mph73%29.74 "Hg10 mi
9:50 PM70 °FClear.10 mph60%29.74 "Hg10 mi
9:20 PM70 °FPassing clouds.10 mph60%29.71 "HgN/A
8:50 PM68 °FClear.9 mph69%29.74 "Hg10 mi
8:20 PM70 °FClear.14 mph60%29.74 "Hg10 mi
7:50 PM70 °FClear.12 mph60%29.74 "Hg10 mi
7:20 PM70 °FClear.10 mph57%29.74 "Hg10 mi
6:50 PM68 °FSunny.7 mph60%29.74 "Hg10 mi
6:20 PM70 °FPassing clouds.10 mph53%29.74 "HgN/A
5:50 PM68 °FPassing clouds.7 mph56%29.74 "HgN/A
5:20 PM70 °FSunny.8 mph50%29.74 "Hg10 mi
Weather by CustomWeather, © 2014

See weather overviewHow to use our weather pages